Weather History for Hurlburt Field, FL

Change the Weather History Date:

Wednesday, November 6, 2013

  Actual Average Record
Temperature  
Mean Temperature 68 °F -  
Max Temperature 75 °F 72 °F 80 °F (2003)
Min Temperature 60 °F 52 °F 35 °F (2010)
Cooling Degree Days 2    
Growing Degree Days 18 (Base 50)    
Moisture  
Dew Point 60 °F    
Average Humidity 75    
Maximum Humidity 89    
Minimum Humidity 61    
Precipitation  
Precipitation 0.00 in - - ()
Sea Level Pressure  
Sea Level Pressure 30.13 in    
Wind  
Wind Speed 7 mph (East)    
Max Wind Speed 13 mph    
Max Gust Speed 17 mph    
Visibility 10 miles    
Events      
Averages and records for this station are not official NWS values.
T = Trace of Precipitation, MM = Missing Value Source: NWS Daily Summary

Daily Weather History Graph

Daily Weather History Graph

Search for Another Location

Airport:

Trip Planner

Search our weather history database for the weather conditions in past years. The results will help you decide how hot, cold, wet, or windy it might be!

Date:

Astronomy

Nov. 06, 2013 Rise Set
Actual Time 6:05 AM CST 4:55 PM CST
Civil Twilight 5:40 AM CST 5:20 PM CST
Nautical Twilight 5:11 AM CST 5:48 PM CST
Astronomical Twilight 4:43 AM CST 6:16 PM CST
Moon 9:14 AM CST (11/6) 8:03 PM CST (11/6)
Length of Visible Light 11h 39m
Length of Day
10h 49m
Waxing Crescent, 14% of the Moon is Illuminated
Nov 6
Waxing Crescent
Nov 9
First Quarter
Nov 17
Full
Nov 25
Last Quarter
Dec 2
New

Hourly Weather History & Observations

Time (CST) Temp. Dew Point Humidity Pressure Visibility Wind Dir Wind Speed Gust Speed Precip Events Conditions
12:58 AM 62.2 °F 51.3 °F 67% 30.16 in 10.0 mi East 9.2 mph - N/A   Clear
1:58 AM 61.7 °F 51.4 °F 69% 30.15 in 10.0 mi East 8.1 mph - N/A   Partly Cloudy
2:58 AM 62.1 °F 51.4 °F 68% 30.14 in 10.0 mi East 10.4 mph - N/A   Mostly Cloudy
3:58 AM 61.9 °F 52.2 °F 70% 30.14 in 10.0 mi ENE 10.4 mph - N/A   Mostly Cloudy
4:58 AM 61.3 °F 53.2 °F 75% 30.15 in 10.0 mi East 9.2 mph - N/A   Mostly Cloudy
5:58 AM 61.3 °F 55.2 °F 80% 30.17 in 10.0 mi East 8.1 mph - N/A   Mostly Cloudy
6:13 AM 60.8 °F 55.4 °F 82% 30.16 in 10.0 mi East 6.9 mph - N/A   Mostly Cloudy
6:18 AM 62.6 °F 55.4 °F 77% 30.16 in 10.0 mi Variable 6.9 mph - N/A   Mostly Cloudy
6:58 AM 62.2 °F 55.9 °F 80% 30.18 in 10.0 mi ENE 8.1 mph - N/A   Overcast
7:58 AM 63.3 °F 56.8 °F 79% 30.19 in 10.0 mi ENE 6.9 mph - N/A   Overcast
8:58 AM 66.2 °F 59.0 °F 78% 30.19 in 10.0 mi East 11.5 mph 17.3 mph N/A   Overcast
9:58 AM 68.7 °F 59.9 °F 73% 30.18 in 10.0 mi East 10.4 mph - N/A   Overcast
10:58 AM 72.1 °F 61.3 °F 69% 30.17 in 10.0 mi East 10.4 mph 17.3 mph N/A   Mostly Cloudy
11:08 AM 71.6 °F 60.8 °F 69% 30.15 in 10.0 mi SE 12.7 mph - N/A   Mostly Cloudy
11:55 AM 73.4 °F 60.8 °F 65% 30.14 in 10.0 mi SE 5.8 mph - N/A   Mostly Cloudy
11:58 AM 72.7 °F 60.4 °F 65% 30.14 in 10.0 mi SE 5.8 mph - N/A   Mostly Cloudy
12:55 PM 75.2 °F 60.8 °F 61% 30.12 in 10.0 mi SE 10.4 mph - N/A   Partly Cloudy
1:55 PM 73.4 °F 62.6 °F 69% 30.12 in 10.0 mi Variable 4.6 mph - N/A   Partly Cloudy
2:50 PM 73.4 °F 62.6 °F 69% 30.09 in 10.0 mi SSE 8.1 mph - N/A   Light Drizzle
2:58 PM 73.6 °F 63.0 °F 69% 30.10 in 10.0 mi South 8.1 mph - 0.00 in   Light Drizzle
2:59 PM 73.4 °F 62.6 °F 69% 30.09 in 10.0 mi South 8.1 mph - N/A   Clear
3:58 PM 73.0 °F 63.1 °F 71% 30.09 in 10.0 mi SSE 5.8 mph - 0.00 in   Partly Cloudy
4:14 PM 71.6 °F 62.6 °F 73% 30.08 in 10.0 mi SE 2.3 mph - N/A   Light Drizzle
4:55 PM 71.6 °F 62.6 °F 73% 30.08 in 10.0 mi ESE 2.3 mph - N/A   Clear
4:58 PM 70.9 °F 63.0 °F 76% 30.09 in 10.0 mi SE 2.3 mph - 0.00 in   Clear
5:44 PM 69.8 °F 62.6 °F 78% 30.09 in 10.0 mi Calm Calm - N/A   Light Drizzle
5:54 PM 69.8 °F 62.6 °F 78% 30.09 in 10.0 mi North 1.2 mph - N/A   Clear
5:58 PM 70.5 °F 62.8 °F 76% 30.10 in 10.0 mi Calm Calm - 0.00 in   Clear
6:58 PM 69.6 °F 63.3 °F 80% 30.11 in 10.0 mi Calm Calm - N/A   Mostly Cloudy
7:58 PM 66.0 °F 62.4 °F 88% 30.11 in 10.0 mi NNE 2.3 mph - N/A   Mostly Cloudy
8:58 PM 65.7 °F 62.1 °F 88% 30.11 in 10.0 mi NNE 3.5 mph - N/A   Partly Cloudy
9:58 PM 66.0 °F 62.1 °F 87% 30.10 in 10.0 mi NE 2.3 mph - N/A   Overcast
10:58 PM 68.2 °F 62.8 °F 83% 30.09 in 10.0 mi East 4.6 mph - N/A   Mostly Cloudy
11:58 PM 64.8 °F 61.3 °F 89% 30.07 in 10.0 mi NNE 1.2 mph - N/A   Clear